Regional Weather Roundup
Issued by NWS Northern Indiana

Home | Current Version | Previous Version | Graphics & Text | Print | Product List | Glossary On
Versions: 1 2 3 4 5 6 7 8 9 10 11 12 13 14 15 16 17 18 19 20 21 22 23 24 25 26 27 28 29 30 31 32 33 34 35 36 37 38 39 40 41 42 43 44 45 46 47 48 49 50
160
ASUS43 KIWX 192300
RWRIWX

KIWX WEATHER ROUNDUP
NATIONAL WEATHER SERVICE NORTHERN INDIANA
700 PM EDT SAT AUG 19 2017

NOTE: "FAIR" INDICATES FEW OR NO CLOUDS BELOW 12,000 FEET WITH NO
SIGNIFICANT WEATHER AND/OR OBSTRUCTIONS TO VISIBILITY.

* THESE STATIONS ARE NOT UNDER NWS QUALITY CONTROL. THEY ALSO MAY NOT
  REPORT WEATHER SUCH AS PRECIPITATION OR FOG.

INZ001>027-200000-
NORTHERN INDIANA

CITY           SKY/WX    TMP DP  RH WIND       PRES   REMARKS
GARY*          SUNNY     81  50  34 VRB6      29.96S
MICHIGAN CITY* SUNNY     73  55  53 CALM      29.98S
SOUTH BEND     SUNNY     78  57  48 NW7       29.97S
GOSHEN         SUNNY     80  57  45 W7        29.96R
MONTICELLO*    SUNNY     81  60  49 CALM      29.95R
FORT WAYNE     SUNNY     80  60  50 W6        29.96S
PERU/GRISSOM   SUNNY     80  58  47 N5        29.95S

$$
INZ028>050-200000-
CENTRAL INDIANA

CITY           SKY/WX    TMP DP  RH WIND       PRES   REMARKS
LAFAYETTE      MOSUNNY   82  62  50 NW6       29.95R
KOKOMO*        SUNNY     81  61  50 NW5       29.97S
MUNCIE*        SUNNY     81  61  50 NW5       29.96S
INDIANAPOLIS   MOSUNNY   85  62  46 N10       29.93S

$$
MIZ043>046-050>051-056>058-064>065-071>073-077>080-200000-
SOUTHWEST LOWER MICHIGAN

CITY           SKY/WX    TMP DP  RH WIND       PRES   REMARKS
BATTLE CREEK   SUNNY     78  58  49 NW6       29.97R
BENTON HARBOR  SUNNY     74  60  61 W3        29.97S
COLDWATER*     SUNNY     79  51  36 W7        29.96S
HILLSDALE*     CLOUDY    77  54  44 NW7       29.96S
HOLLAND        SUNNY     74  59  59 W6        29.97S
GRAND RAPIDS   MOSUNNY   76  61  59 W13       29.95S
KALAMAZOO      SUNNY     79  54  41 W8        29.96S
STURGIS*       SUNNY     78  57  48 NW5       29.96R
THREE RIVERS*  FAIR      80  54  40 NW7       29.97R

$$
OHZ001>008-015>018-024>025-200000-
NORTHWEST OHIO

CITY           SKY/WX    TMP DP  RH WIND       PRES   REMARKS
DEFIANCE       SUNNY     79  59  50 W3        29.95S
FINDLAY        SUNNY     81  58  45 NW9       29.94S
TOLEDO EXPRESS SUNNY     79  58  48 W7        29.94R
TOLEDO METCALF MOSUNNY   80  58  46 W12       29.95R
LIMA           SUNNY     78  59  51 NW6       29.96R

$$
AND FOR LAKE MICHIGAN COASTAL AND OPEN LAKE BUOY OBSERVATIONS

STATION/POSITION TEMP    WIND        PRES    VSBY  WAVE
                 AIR SEA DIR/SP/G                  HT/PER
                 (F)     (DEG/KT/KT) (MB)    (MI)  (FT/S)
CALUMET HARBOR    75      80/  8/ 10 1013.9
MICHIGAN CITY     72      30/  5/  6   N/A
BURNS HARBOR      75      50/  7/  8 1015.2
SAINT JOSEPH      75     290/  4/  5 1015.2
SOUTH LAKE BUOY   72 73  210/  6/  8 1014.4          1
4 MI NW BRIDGMAN  73     300/  4/  6 1014.7R         1/ 4
MICHIGAN CITY     73 76   60/  4/  6   N/A           1/ 4

$$
&&




USA.gov is the U.S. government's official web portal to all federal, state and local government web resources and services.